Home > Weather > Schwerin > Past weeks

Flag for Germany Weather for the Past 2 Weeks in Schwerin, Mecklenburg-Western Pomerania, Germany

Now
37 °F

Passing clouds.


Feels Like: 27 °F
Forecast: 36 / 41 °F
Wind: 18 mph from West

Location: Mecklenburg-Vorpommern - Parchim

Current Time: Feb 10, 2016 at 6:59:13 AM

Latest Report: Feb 10, 2016 at 5:50 AM


Visibility: N/A

Pressure: 29.12 "Hg

Humidity: 93%

Dew point: 36 °F

Location of SchwerinLocation

Historic Weather in Schwerin — Graph

°F

Schwerin Temperature Yesterday

Maximum temperature yesterday: 46 °F (at 11:20 AM)
Minimum temperature yesterday: 43 °F (at 5:20 AM)
Average temperature yesterday: 45 °F

High & Low Weather Summary for the Past Weeks

 TemperatureHumidityPressure
High52 °F (Jan 27, 11:50 AM)100% (Jan 27, 5:20 AM)30.18 "Hg (Jan 27, 5:20 AM)
Low32 °F (Feb 5, 5:50 AM)54% (Feb 2, 12:50 PM)29.06 "Hg (Feb 9, 5:20 PM)
Average44 °F80%29.77 "Hg
* Reported Jan 26 5:20 AM — Feb 10 5:50 AM, Schwerin, Weather by CustomWeather, © 2016

Note: Actual official high and low records may vary slightly from our data, if they occured in-between our weather recording intervals... More about our weather records

Advertising

Schwerin Weather History for the Previous 24 Hours

 ConditionsComfort  
Time TempWeatherWind HumidityBarometerVisibility
5:50 AM
Wed, Feb 10
37 °FPassing clouds.18 mph93%29.12 "HgN/A
5:20 AM37 °FPassing clouds.18 mph93%29.09 "HgN/A
5:50 PM
Tue, Feb 9
45 °FLight rain. Passing clouds.13 mph76%29.06 "HgN/A
5:20 PM45 °FPartly cloudy.13 mph71%29.06 "HgN/A
4:50 PM46 °FBroken clouds.12 mph66%29.09 "HgN/A
4:20 PM46 °FSunny.13 mph66%29.12 "Hg10 mi
3:50 PM46 °FBroken clouds.9 mph66%29.15 "HgN/A
3:20 PM46 °FPartly sunny.9 mph66%29.18 "HgN/A
2:50 PM46 °FPartly sunny.9 mph66%29.18 "HgN/A
2:20 PM45 °FBroken clouds.9 mph76%29.21 "HgN/A
1:50 PM45 °FBroken clouds.9 mph76%29.24 "HgN/A
1:20 PM46 °FPartly sunny.12 mph66%29.24 "HgN/A
12:50 PM45 °FPartly sunny.16 mph71%29.27 "HgN/A
12:20 PM46 °FPartly sunny.18 mph66%29.27 "HgN/A
11:20 AM46 °FBroken clouds.17 mph62%29.30 "HgN/A
10:50 AM45 °FPartly sunny.17 mph66%29.30 "HgN/A
10:20 AM45 °FPartly sunny.20 mph66%29.30 "HgN/A
9:50 AM45 °FScattered clouds.21 mph71%29.30 "HgN/A
8:50 AM45 °FPartly sunny.26 mph66%29.30 "HgN/A
8:20 AM45 °FPartly sunny.23 mph71%29.27 "HgN/A
7:50 AM45 °FMore clouds than sun.23 mph76%29.27 "HgN/A
6:50 AM43 °FPassing clouds.28 mph87%29.27 "HgN/A
6:20 AM43 °FLight rain. Partly cloudy.28 mph87%29.24 "HgN/A
Weather by CustomWeather, © 2016

See weather overviewHow to use our weather pages